Gulkana, AK

10:41 AM AKST on February 19, 2018 (GMT -0900)
Gulkana

Weather History for PAGK - August, 2014

Change the Weather History Date:

Friday, August 22, 2014

  Actual Average Record
Temperature  
Mean Temperature 52 °F -  
Max Temperature 70 °F 62 °F 82 °F (1977)
Min Temperature 33 °F 41 °F 28 °F (1954)
Degree Days  
Heating Degree Days 14    
Growing Degree Days 2 (Base 50)    
Moisture  
Dew Point 40 °F    
Average Humidity 75    
Maximum Humidity 100    
Minimum Humidity 22    
Precipitation  
Precipitation 0.00 in - - ()
Sea Level Pressure  
Sea Level Pressure 30.21 in    
Wind  
Wind Speed 1 mph (NW)    
Max Wind Speed 5 mph    
Max Gust Speed -    
Visibility 8 miles    
Events      
Averages and records for this station are not official NWS values.
T = Trace of Precipitation, MM = Missing Value Source: NWS Daily Summary

Daily Weather History Graph

Daily Weather History Graph

Search for Another Location

Airport or City:

Trip Planner

Search our weather history database for the weather conditions in past years. The results will help you decide how hot, cold, wet, or windy it might be!

Date:

Astronomy

Aug. 22, 2014 Rise Set
Actual Time 6:04 AM AKDT 9:22 PM AKDT
Civil Twilight 5:11 AM AKDT 10:15 PM AKDT
Nautical Twilight 3:53 AM AKDT 11:31 PM AKDT
Astronomical Twilight 2:17 AM AKDT 1:12 AM AKDT
Moon 3:12 AM AKDT (8/22) 7:51 PM AKDT (8/22)
Length of Visible Light 17h 03m
Length of Day
15h 18m
Waning Crescent, 7% of the Moon is Illuminated
Aug 22
Waning Crescent
Aug 25
New
Sep 2
First Quarter
Sep 8
Full
Sep 15
Last Quarter

Hourly Weather History & Observations

Time (AKDT) Temp. Windchill Dew Point Humidity Pressure Visibility Wind Dir Wind Speed Gust Speed Precip Events Conditions
1:53 AM 41.0 °F - 39.0 °F 93% 30.21 in 10.0 mi Calm Calm - N/A   Clear
4:43 AM 34.0 °F - 33.1 °F 96% 30.21 in 3.0 mi Calm Calm - N/A   Mostly Cloudy
4:46 AM 35.1 °F - 34.0 °F 96% 30.21 in 0.8 mi Calm Calm - N/A   Mist
5:42 AM 34.0 °F - 33.1 °F 96% 30.21 in 2.0 mi Calm Calm - N/A   Overcast
5:53 AM 33.1 °F - 33.1 °F 100% 30.23 in 1.2 mi Calm Calm - N/A   Mostly Cloudy
5:58 AM 33.1 °F 28.7 °F 33.1 °F 100% 30.21 in 3.0 mi NW 4.6 mph - N/A   Mostly Cloudy
6:01 AM 34.0 °F 29.8 °F 33.1 °F 96% 30.21 in 1.0 mi NW 4.6 mph - N/A   Mist
6:26 AM 35.1 °F - 34.0 °F 96% 30.21 in 2.0 mi Calm Calm - N/A   Mostly Cloudy
7:25 AM 37.9 °F 34.4 °F 37.0 °F 97% 30.21 in 10.0 mi NW 4.6 mph - N/A   Partly Cloudy
7:53 AM 41.0 °F - 39.9 °F 96% 30.23 in 10.0 mi Calm Calm - N/A   Clear
8:53 AM 45.0 °F - 43.0 °F 93% 30.23 in 10.0 mi Calm Calm - N/A   Partly Cloudy
9:53 AM 51.1 °F - 44.1 °F 77% 30.23 in 10.0 mi Calm Calm - N/A   Clear
10:53 AM 53.1 °F - 46.0 °F 77% 30.23 in 10.0 mi ESE 3.5 mph - N/A   Clear
11:53 AM 55.9 °F - 46.0 °F 69% 30.23 in 10.0 mi Calm Calm - N/A   Clear
12:53 PM 60.1 °F - 46.9 °F 62% 30.21 in 10.0 mi Calm Calm - N/A   Clear
1:53 PM 62.1 °F - 46.9 °F 58% 30.20 in 10.0 mi Calm Calm - N/A   Clear
3:53 PM 69.1 °F - 39.0 °F 33% 30.17 in 10.0 mi North - - N/A   Scattered Clouds
4:53 PM 69.1 °F - 41.0 °F 36% 30.17 in 10.0 mi Variable 3.5 mph - N/A   Clear
5:53 PM 68.0 °F - 42.1 °F 39% 30.16 in 10.0 mi Calm Calm - N/A   Clear
7:53 PM 62.1 °F - 43.0 °F 50% 30.18 in 10.0 mi Variable 4.6 mph - N/A   Scattered Clouds
8:53 PM 59.0 °F - 43.0 °F 55% 30.19 in 10.0 mi NW 4.6 mph - N/A   Scattered Clouds